Regional Weather Roundup
Issued by NWS Charleston, SC

Current Version | Previous Version | Text Only | Print | Product List | Glossary Off
Versions: 1 2 3 4 5 6 7 8 9 10 11 12 13 14 15 16 17 18 19 20 21 22 23 24 25 26 27 28 29 30 31 32 33 34 35 36 37 38 39 40 41 42 43 44 45 46 47 48 49 50

000
ASUS42 KCHS 130713
RWRCHS

REGIONAL WEATHER ROUNDUP
NATIONAL WEATHER SERVICE CHARLESTON SC
200 AM EST SAT FEB 13 2016

NOTE: "FAIR" INDICATES FEW OR NO CLOUDS BELOW 12,000 FEET WITH NO
SIGNIFICANT WEATHER AND/OR OBSTRUCTIONS TO VISIBILITY.

NOT ALL STATIONS ARE QUALITY CONTROLLED BY THE NATIONAL
WEATHER SERVICE. USE DATA WITH CAUTION...ESPECIALLY
DEWPOINT OBSERVATIONS.

SCZ027-030-031-034>040-042>050-130800-
...SOUTHEAST SOUTH CAROLINA...

CITY           SKY/WX    TMP DP  RH WIND       PRES   REMARKS
N CHARLESTON   CLEAR     37  34  89 SW6       30.08F WCI  32
WATERFRONT PRK   N/A     43  40  89 VRB2      29.94R
MOUNT PLEASANT FAIR      36  36 100 CALM      30.08F
JOHNS ISLAND   FAIR      39  37  93 NW3       30.09S
PINOPOLIS        N/A     41  37  87 W6        29.99R
MONCKS CORNER  FAIR      32  30  93 N3        30.08S
SUMMERVILLE    FAIR      34  34 100 CALM      30.09F
BEAUFORT MCAS  CLEAR     46  38  73 N9        30.11R
BEAUFORT ARPT  FAIR      46  41  81 N13       30.10R
HILTON HEAD IS CLEAR     50  41  71 NW10G21   30.11R
WALTERBORO     SUNNY     43  36  75 W5        30.10S
ALLENDALE      FAIR      45  32  61 CALM      30.10S

...SOUTHERN MIDLANDS AND PEE DEE...

CITY           SKY/WX    TMP DP  RH WIND       PRES   REMARKS
GEORGETOWN     FAIR      32  30  93 CALM      30.09R
KINGSTREE      FAIR      28  27  93 CALM      30.09S
ORANGEBURG     CLEAR     39  32  76 NW5       30.09R WCI  36
BARNWELL       FAIR      45  32  61 NW9       30.10S
AIKEN          FAIR      39  28  65 W12G17    30.11F WCI  32
MANNING        FAIR      30  27  86 CALM      30.09S
COLUMBIA       CLEAR     32  26  78 CALM      30.09R
SUMTER         CLEAR     31  26  82 W5        30.06S WCI  26
FLORENCE       CLEAR     27  26  96 CALM      30.07S
MYRTLE BEACH   CLEAR     32  23  69 NW5       30.09R WCI  27
N MYRTLE BEACH CLEAR     32  28  85 N6        30.06R WCI  26

$$

GAZ063-065-086>088-099>101-113>116-118-119-134>141-150-130800-
...SOUTHEAST GEORGIA...

CITY           SKY/WX    TMP DP  RH WIND       PRES   REMARKS
SAVANNAH ARPT  CLEAR     49  40  71 NW8       30.12R
HUNTER AAF     CLEAR     51  41  69 NW9       30.09R
FORT STEWART   CLEAR     52  39  61 NW5       30.11R
STATESBORO     CLEAR     49  32  53 NW6       30.12S
SYLVANIA       SUNNY     45  38  77 NW3       30.12S
CLAXTON        FAIR      51  39  64 W8        30.13S

...CSRA...CENTRAL AND FAR SOUTHEAST GEORGIA...

CITY           SKY/WX    TMP DP  RH WIND       PRES   REMARKS
THOMSON        CLEAR     41  33  74 NW6       30.17R
AUGUSTA-BUSH   CLEAR     43  30  60 NW9       30.12S
AUGUSTA-DANIEL CLEAR     44  28  53 W8        30.11S
SWAINSBORO     FAIR      41  36  81 NW6       30.14S
VIDALIA        CLEAR     50  34  53 NW8       30.14R
EASTMAN        FAIR      49  33  53 CALM      30.18R
HAZLEHURST     FAIR      53  35  50 NW5       30.14R
ALMA           CLEAR     53  39  59 N6        30.14R
WAYCROSS       CLEAR     56  46  69 N9        30.13S
JESUP          FAIR      59  43  55 N9        30.13R
BAXLEY         FAIR      54  39  58 NW6       30.14R
BRUNSWICK      CLEAR     55  46  71 W5        30.12R
SAINT SIMONS   CLEAR     56  50  80 W7        30.11R

$$

SCZ027-028-034-036>038-045-046-048>050-GAZ119-141-130800-
...LAKE AND SUPPLEMENTAL COASTAL OBSERVATIONS...

STATION/POSITION TIME  TEMP    WIND        PRES    WAVE   SWELL
                       AIR SEA DIR/SP/G            HT/PER HT/PER/DIR
                 (UTC) (F)     (DEG/KT/KT) (MB)    (FT/S) (FT/S/D)
WINYAH BAY       NOT AVBL
LAKE MURRAY      0600   37      CALM  /  3 1018.3S
ACE BASIN NERRS  NOT AVBL
FORT PULASKI     0600   51 51  290/  6/  6 1019.0R
SAPELO ISLAND    0600   54     250/  6     1019.0S

$$

ANZ835-935-AMZ111-154-330-350-352-354-370-450-454-472-130800-
...C-MAN AND BUOY OBSERVATIONS...

STATION/POSITION TIME  TEMP    WIND        PRES    WAVE   SWELL
                       AIR SEA DIR/SP/G            HT/PER HT/PER/DIR
                 (UTC) (F)     (DEG/KT/KT) (MB)    (FT/S) (FT/S/D)
BUOY 41004       0650   54 68  310/ 12/ 16 1017.7R   3/ 6   2/ 6
BUOY 41008       0650   55 53  270/ 12/ 14 1019.1R   2/ 6   2/150/ 6
FOLLY BEACH CMAN 0600   44     330/  3/  4 1018.4R
CAPERS NEARSHORE 0608   46     350/ 12/ 16 1018.2R
FRIPP NEARSHORE  0600   47     300/  4/  6 1017.8R


STATION/POSITION TIME  TEMP    WIND        PRES    WAVE   SWELL
                       AIR SEA DIR/SP/G            HT/PER HT/PER/DIR
                 (UTC) (F)     (DEG/KT/KT) (MB)    (FT/S) (FT/S/D)
5E ST. MARYS GA  0621      56                N/A     2/ 5
FRYING PAN BUOY  0600   44 52  330/ 12/ 14 1017.0R
BUOY 41025       0650   42 71  320/ 19/ 23 1015.8F   5/ 8   3/ 70/ 8
CAPE LOOKOUT NC  NOT AVBL
BUOY 41002       0650   61 68  330/ 21/ 27   N/A    15/10  10/260/10
BUOY 41010       0620   70 72              1019.5F
ST AUGUSTINE FL  0600   60 58  250/  8/ 10 1021.3F


$$



USA.gov is the U.S. government's official web portal to all federal, state and local government web resources and services.